Regional Weather Roundup
Issued by NWS

Home | Current Version | Previous Version | Graphics & Text | Print | Product List | Glossary On
Versions: 1 2 3 4 5 6 7 8 9 10 11 12 13 14 15 16 17 18 19 20 21 22 23 24 25 26 27 28 29 30 31 32 33 34 35 36 37 38 39 40 41 42 43 44 45 46 47 48 49 50
000
ASUS43 KOAX 030202
RWRNE

WEATHER ROUNDUP FOR NEBRASKA
NATIONAL WEATHER SERVICE OMAHA NE
900 PM CDT WED SEP 02 2015

NOTES: SATELLITE DATA IS BEING USED TO AUGMENT CLOUD COVER ABOVE
       12000 FEET.
       "FAIR" INDICATES FEW OR NO CLOUDS BELOW 12,000 FEET WITH NO
       SIGNIFICANT WEATHER AND/OR OBSTRUCTIONS TO VISIBILITY.

  * THESE STATIONS DO NOT REPORT WEATHER SUCH AS RAIN...SNOW OR FOG.

NEZ001>004-019>022-054>056-030300-
NEBRASKA PANHANDLE

CITY           SKY/WX    TMP DP  RH WIND       PRES   REMARKS
SCOTTSBLUFF    CLEAR     76  53  44 E5        29.88S
ALLIANCE       CLEAR     73  48  41 S7        29.88S
CHADRON        CLEAR     77  46  33 S9        29.81R
KIMBALL        PTCLDY    73  45  36 S6        29.96R
SIDNEY         CLEAR     73  42  32 S7        29.94R
$$

NEZ057>060-069>072-079>082-030300-
SOUTHWEST NEBRASKA

CITY           SKY/WX    TMP DP  RH WIND       PRES   REMARKS
NORTH PLATTE   CLEAR     72  65  78 E8        29.85R
IMPERIAL       PTCLDY    81  55  40 E8        29.86S
LEXINGTON      CLEAR     78  69  74 E5        29.84R
MC COOK        CLEAR     83  59  44 E7        29.82S
OGALLALA       CLEAR     83  55  38 SE3       29.87R
$$

NEZ005>010-023>029-035>040-094-030300-
NORTH CENTRAL NEBRASKA

CITY           SKY/WX    TMP DP  RH WIND       PRES   REMARKS
VALENTINE      PTCLDY    86  52  30 S13       29.80R
AINSWORTH      CLEAR     81  53  37 S8        29.83R
BROKEN BOW     CLEAR     73  67  81 CALM      29.86R
O`NEILL        CLEAR     81  71  71 SE8       29.83R
ORD            CLEAR     80  65  59 SE5       29.83R
THEDFORD       CLEAR     86  60  42 S12       29.86R
$$

NEZ041-046>049-061>064-073>077-083>087-030300-
SOUTH CENTRAL NEBRASKA

CITY           SKY/WX    TMP DP  RH WIND       PRES   REMARKS
GRAND ISLAND   CLEAR     79  69  71 SE7       29.84R
AURORA         CLEAR     77  71  81 SE6       29.84R
HASTINGS       CLEAR     85  65  51 SE12      29.84R
HEBRON         CLEAR     83  62  48 S9        29.84R
HOLDREGE       CLEAR     76  65  67 E7        29.84R
KEARNEY *      CLEAR     77  64  65 SE7       29.84R
YORK           CLEAR     81  70  69 CALM      29.85R
$$

NEZ011>018-030>034-042>045-030300-
NORTHEAST NEBRASKA

CITY           SKY/WX    TMP DP  RH WIND       PRES   REMARKS
NORFOLK        CLEAR     77  72  84 SE6       29.83R
ALBION         CLEAR     76  69  79 CALM      29.84R
BLAIR          FAIR      80  69  70 SE7       29.86R
COLUMBUS *     CLEAR     79  70  73 E3        29.83R
FREMONT        CLEAR     81  71  72 SE6       29.85R
TEKAMAH        CLEAR     78  73  84 SE8       29.84R
$$

NEZ050>053-065>068-078-088>093-030300-
SOUTHEAST NEBRASKA

CITY           SKY/WX    TMP DP  RH WIND       PRES   REMARKS
LINCOLN        PTCLDY    82  68  62 S10       29.84R
OMAHA EPPLEY   MOCLDY    82  72  71 S10       29.85R
BEATRICE       PTCLDY    82  68  63 SE8       29.85R
FALLS CITY     PTCLDY    77  70  79 SE6       29.88R
NEBRASKA CITY  PTCLDY    78  64  62 S10       29.88R
PLATTSMOUTH    PTCLDY    79  69  72 SE9       29.87R
$$

NEZ044-045-051>053-067-030300-
OMAHA AREA

CITY           SKY/WX    TMP DP  RH WIND       PRES   REMARKS
EPPLEY FIELD   MOCLDY    82  72  71 S10       29.85R
BLAIR          CLEAR     80  69  70 SE7       29.86R
FREMONT        CLEAR     81  71  72 SE6       29.85R
MILLARD        PTCLDY    81  73  76 SE6       29.84R
OFFUTT AFB     PTCLDY    79  73  81 SE7       29.85R
PLATTSMOUTH    PTCLDY    79  69  72 SE9       29.87R
WAHOO          FAIR      76  71  83 SE8       29.84R
$$


USA.gov is the U.S. government's official web portal to all federal, state and local government web resources and services.